Terminal Aerodrome Forecast
Issued by NWS Grand Rapids, MI

Home | Current Version | Previous Version | Text Only | Print | Product List | Glossary On
Versions: 1 2 3 4 5 6 7 8 9 10 11 12 13 14
000
FTUS43 KGRR 271100 RRA
TAFGRR
TAF
KGRR 271141Z 2712/2812 34010KT P6SM OVC040
     FM271600 34011KT P6SM BKN040
     FM280200 01005KT P6SM SCT050=

USA.gov is the U.S. government's official web portal to all federal, state and local government web resources and services.